,,PA_Meas_PMT16A,,PR_Meas_QMR101_102,,RH_Meas_QMH101,,SR_Meas_QMS101,,TA_Meas_QMH101,,GenWind,,GenWind,
time,status,PA,status,PR,status,RH,status,SR,status,TA,status,DirAvg,status,SpdAvg,
2015-02-26, 07:47:04,VALID,917.82,VALID,0,VALID,98.4031,VALID,66.5061,VALID,19.1973,VALID,139,VALID,1.33906,
2015-02-26, 07:48:04,VALID,917.797,VALID,0,VALID,98.4488,VALID,70.4814,VALID,19.2377,VALID,140,VALID,1.16914,
2015-02-26, 07:49:04,VALID,917.826,VALID,0,VALID,98.4488,VALID,73.06,VALID,19.2197,VALID,163,VALID,1.32031,
2015-02-26, 07:50:04,VALID,917.837,VALID,0,VALID,98.4412,VALID,75.746,VALID,19.1763,VALID,133,VALID,0.954297,
2015-02-26, 07:51:04,VALID,917.848,VALID,0,VALID,98.4488,VALID,79.0767,VALID,19.2168,VALID,146,VALID,1.7043,
2015-02-26, 07:52:04,VALID,917.856,VALID,0,VALID,98.4564,VALID,80.5809,VALID,19.2153,VALID,136,VALID,0.844531,
2015-02-26, 07:53:04,VALID,917.842,VALID,0,VALID,98.464,VALID,81.8702,VALID,19.2348,VALID,154,VALID,1.44727,
2015-02-26, 07:54:04,VALID,917.839,VALID,0,VALID,98.4412,VALID,83.5892,VALID,19.2738,VALID,130,VALID,1.40977,
2015-02-26, 07:55:04,VALID,917.831,VALID,0,VALID,98.4335,VALID,85.738,VALID,19.3533,VALID,134,VALID,0.837109,
2015-02-26, 07:56:04,VALID,917.816,VALID,0,VALID,98.4183,VALID,87.7794,VALID,19.4103,VALID,132,VALID,1.09023,
2015-02-26, 07:57:04,VALID,917.794,VALID,0,VALID,98.4107,VALID,90.4654,VALID,19.4493,VALID,129,VALID,1.35625,
2015-02-26, 07:58:04,VALID,917.773,VALID,0,VALID,98.3802,VALID,92.0771,VALID,19.5678,VALID,115,VALID,0.939453,
2015-02-26, 07:59:04,VALID,917.811,VALID,0,VALID,98.3878,VALID,94.6557,VALID,19.5453,VALID,114,VALID,1.85,
2015-02-26, 08:00:04,VALID,917.803,VALID,0,VALID,98.4031,VALID,97.4491,VALID,19.6053,VALID,94,VALID,1.18398,
2015-02-26, 08:01:04,VALID,917.798,VALID,0,VALID,98.3878,VALID,102.929,VALID,19.6848,VALID,86,VALID,1.33672,
2015-02-26, 08:02:04,VALID,917.774,VALID,0,VALID,98.3878,VALID,103.466,VALID,19.7238,VALID,89,VALID,1.44805,
2015-02-26, 08:03:04,VALID,917.774,VALID,0,VALID,98.3878,VALID,109.268,VALID,19.7223,VALID,86,VALID,0.933203,
2015-02-26, 08:04:04,VALID,917.735,VALID,0,VALID,98.3954,VALID,116.896,VALID,19.7223,VALID,79,VALID,1.81484,
2015-02-26, 08:05:04,VALID,917.745,VALID,0,VALID,98.4107,VALID,132.582,VALID,19.7433,VALID,96,VALID,1.71289,
2015-02-26, 08:06:04,VALID,917.741,VALID,0,VALID,98.3878,VALID,170.079,VALID,19.8003,VALID,106,VALID,1.39023,
2015-02-26, 08:07:04,VALID,917.759,VALID,0,VALID,98.3954,VALID,181.253,VALID,19.8198,VALID,109,VALID,1.91211,
2015-02-26, 08:08:04,VALID,917.722,VALID,0,VALID,98.3649,VALID,192.105,VALID,19.8783,VALID,117,VALID,2.04258,
2015-02-26, 08:09:04,VALID,917.706,VALID,0,VALID,98.3497,VALID,202.741,VALID,19.9563,VALID,124,VALID,2.20586,
2015-02-26, 08:10:04,VALID,917.72,VALID,0,VALID,98.3344,VALID,211.981,VALID,20.0538,VALID,134,VALID,1.8582,
2015-02-26, 08:11:04,VALID,917.747,VALID,0,VALID,98.3192,VALID,219.18,VALID,20.1708,VALID,144,VALID,1.58984,
2015-02-26, 08:12:04,VALID,917.736,VALID,0,VALID,98.3116,VALID,225.734,VALID,20.2714,VALID,147,VALID,1.55703,
2015-02-26, 08:13:04,VALID,917.744,VALID,0,VALID,98.2658,VALID,234.222,VALID,20.3838,VALID,164,VALID,0.753125,
2015-02-26, 08:14:04,VALID,917.809,VALID,0,VALID,98.2582,VALID,236.693,VALID,20.5009,VALID,139,VALID,1.11055,
2015-02-26, 08:15:04,VALID,917.799,VALID,0,VALID,98.2582,VALID,238.197,VALID,20.5804,VALID,152,VALID,1.11602,
2015-02-26, 08:16:04,VALID,917.814,VALID,0,VALID,98.2277,VALID,238.304,VALID,20.5999,VALID,148,VALID,1.61602,
2015-02-26, 08:17:04,VALID,917.807,VALID,0,VALID,98.1362,VALID,241.743,VALID,20.5804,VALID,132,VALID,1.9793,
2015-02-26, 08:18:04,VALID,917.804,VALID,0,VALID,97.9838,VALID,246.148,VALID,20.678,VALID,148,VALID,2.1918,
2015-02-26, 08:19:04,VALID,917.826,VALID,0,VALID,97.7856,VALID,248.941,VALID,20.756,VALID,141,VALID,1.01719,
2015-02-26, 08:20:04,VALID,917.83,VALID,0,VALID,97.4501,VALID,252.057,VALID,20.8324,VALID,123,VALID,1.46445,
2015-02-26, 08:21:04,VALID,917.815,VALID,0,VALID,97.0156,VALID,256.247,VALID,20.9495,VALID,121,VALID,1.10234,
2015-02-26, 08:22:04,VALID,917.843,VALID,0,VALID,96.1923,VALID,258.826,VALID,21.047,VALID,160,VALID,1.26563,
2015-02-26, 08:23:04,VALID,917.847,VALID,0,VALID,94.9725,VALID,263.875,VALID,21.125,VALID,106,VALID,0.867969,
2015-02-26, 08:24:04,VALID,917.801,VALID,0,VALID,93.8671,VALID,268.495,VALID,21.2226,VALID,142,VALID,1.70391,
2015-02-26, 08:25:04,VALID,917.847,VALID,0,VALID,92.4568,VALID,276.016,VALID,21.3201,VALID,142,VALID,1.14063,
2015-02-26, 08:26:04,VALID,917.873,VALID,0,VALID,90.5967,VALID,278.38,VALID,21.4177,VALID,172,VALID,1.44062,
2015-02-26, 08:27:04,VALID,917.875,VALID,0,VALID,89.6666,VALID,281.818,VALID,21.4762,VALID,165,VALID,1.58828,
2015-02-26, 08:28:04,VALID,917.916,VALID,0,VALID,88.9958,VALID,285.256,VALID,21.5347,VALID,172,VALID,0.666797,
2015-02-26, 08:29:04,VALID,917.924,VALID,0,VALID,88.9881,VALID,285.686,VALID,21.5932,VALID,166,VALID,0.969141,
2015-02-26, 08:30:04,VALID,917.925,VALID,0,VALID,88.3783,VALID,290.199,VALID,21.6323,VALID,170,VALID,1.83438,
2015-02-26, 08:31:04,VALID,917.964,VALID,0,VALID,88.3859,VALID,287.298,VALID,21.6128,VALID,146,VALID,1.74688,
2015-02-26, 08:32:04,VALID,917.987,VALID,0,VALID,88.8738,VALID,289.339,VALID,21.6144,VALID,163,VALID,1.28398,
2015-02-26, 08:33:04,VALID,917.93,VALID,0,VALID,88.5231,VALID,296.967,VALID,21.5949,VALID,136,VALID,1.40898,
2015-02-26, 08:34:04,VALID,917.971,VALID,0,VALID,88.9576,VALID,301.587,VALID,21.6746,VALID,160,VALID,0.00859375,
2015-02-26, 08:35:04,VALID,918.003,VALID,0,VALID,89.2397,VALID,307.926,VALID,21.7493,VALID,150,VALID,0,
2015-02-26, 08:36:04,VALID,918.007,VALID,0,VALID,88.7213,VALID,313.406,VALID,21.8469,VALID,165,VALID,0.00273437,
2015-02-26, 08:37:04,VALID,917.99,VALID,0,VALID,88.6603,VALID,316.844,VALID,21.964,VALID,110,VALID,0.325391,
2015-02-26, 08:38:04,VALID,918.029,VALID,0,VALID,87.7684,VALID,316.522,VALID,22.1005,VALID,103,VALID,0,
2015-02-26, 08:39:04,VALID,918.032,VALID,0,VALID,88.1648,VALID,316.522,VALID,22.1786,VALID,106,VALID,0.639844,
2015-02-26, 08:40:04,VALID,918.081,VALID,0,VALID,87.9285,VALID,313.943,VALID,22.1981,VALID,127,VALID,0,
2015-02-26, 08:41:04,VALID,918.096,VALID,0,VALID,87.4253,VALID,306.315,VALID,22.1964,VALID,134,VALID,0.00585938,
2015-02-26, 08:42:04,VALID,918.122,VALID,0,VALID,87.1585,VALID,311.364,VALID,22.3347,VALID,152,VALID,0.357422,
2015-02-26, 08:43:04,VALID,918.112,VALID,0,VALID,86.3733,VALID,312.009,VALID,22.3525,VALID,137,VALID,0,
2015-02-26, 08:44:04,VALID,918.134,VALID,0,VALID,86.1598,VALID,309.968,VALID,22.4501,VALID,132,VALID,0.480078,
2015-02-26, 08:45:04,VALID,918.162,VALID,0,VALID,85.3594,VALID,323.076,VALID,22.3525,VALID,115,VALID,2.06562,
2015-02-26, 08:46:04,VALID,918.151,VALID,0,VALID,86.3276,VALID,306.852,VALID,22.2957,VALID,135,VALID,1.60859,
2015-02-26, 08:47:04,VALID,918.175,VALID,0,VALID,86.7164,VALID,308.034,VALID,22.2762,VALID,108,VALID,1.45156,
2015-02-26, 08:48:04,VALID,918.16,VALID,0,VALID,85.7253,VALID,310.72,VALID,22.2762,VALID,128,VALID,1.93711,
2015-02-26, 08:49:04,VALID,918.171,VALID,0,VALID,86.4724,VALID,321.249,VALID,22.2762,VALID,128,VALID,0.597656,
2015-02-26, 08:50:04,VALID,918.162,VALID,0,VALID,86.1675,VALID,327.696,VALID,22.2354,VALID,125,VALID,1.59648,
2015-02-26, 08:51:04,VALID,918.184,VALID,0,VALID,87.1356,VALID,321.679,VALID,22.2354,VALID,85,VALID,0.274609,
2015-02-26, 08:52:04,VALID,918.197,VALID,0,VALID,86.5105,VALID,325.009,VALID,22.333,VALID,124,VALID,0.525781,
2015-02-26, 08:53:04,VALID,918.201,VALID,0,VALID,86.1446,VALID,340.588,VALID,22.3916,VALID,133,VALID,0.579687,
2015-02-26, 08:54:04,VALID,918.19,VALID,0,VALID,84.7648,VALID,358.853,VALID,22.4501,VALID,116,VALID,0.678906,
2015-02-26, 08:55:04,VALID,918.206,VALID,0,VALID,85.1078,VALID,371.424,VALID,22.5299,VALID,108,VALID,0.553906,
2015-02-26, 08:56:04,VALID,918.26,VALID,0,VALID,86.2971,VALID,381.094,VALID,22.5477,VALID,108,VALID,0.252734,
2015-02-26, 08:57:04,VALID,918.25,VALID,0,VALID,84.902,VALID,384.854,VALID,22.6452,VALID,128,VALID,0.534375,
2015-02-26, 08:58:04,VALID,918.284,VALID,0,VALID,83.667,VALID,386.896,VALID,22.6435,VALID,117,VALID,1.16445,
2015-02-26, 08:59:04,VALID,918.297,VALID,0,VALID,84.1701,VALID,374.862,VALID,22.6435,VALID,111,VALID,0,
2015-02-26, 09:00:04,VALID,918.316,VALID,0,VALID,84.7571,VALID,380.342,VALID,22.7233,VALID,154,VALID,0,
2015-02-26, 09:01:04,VALID,918.317,VALID,0,VALID,84.8791,VALID,382.491,VALID,22.7818,VALID,119,VALID,0.362891,
2015-02-26, 09:02:04,VALID,918.306,VALID,0,VALID,83.6441,VALID,396.35,VALID,22.8191,VALID,84,VALID,2.00938,
2015-02-26, 09:03:04,VALID,918.304,VALID,0,VALID,82.6378,VALID,406.02,VALID,22.7996,VALID,119,VALID,0.816797,
2015-02-26, 09:04:04,VALID,918.296,VALID,0,VALID,83.2858,VALID,418.376,VALID,22.7996,VALID,89,VALID,0.362891,
2015-02-26, 09:05:04,VALID,918.305,VALID,0,VALID,83.484,VALID,424.178,VALID,22.9202,VALID,125,VALID,0,
2015-02-26, 09:06:04,VALID,918.312,VALID,0,VALID,83.7127,VALID,428.368,VALID,23.1136,VALID,46,VALID,0,
2015-02-26, 09:07:04,VALID,918.337,VALID,0,VALID,81.5934,VALID,427.616,VALID,23.4064,VALID,59,VALID,0,
2015-02-26, 09:08:04,VALID,918.361,VALID,0,VALID,81.6849,VALID,419.021,VALID,23.6424,VALID,109,VALID,0,
2015-02-26, 09:09:04,VALID,918.341,VALID,0,VALID,77.7741,VALID,428.26,VALID,23.6211,VALID,129,VALID,0.272266,
2015-02-26, 09:10:04,VALID,918.338,VALID,0,VALID,78.6508,VALID,432.343,VALID,23.6211,VALID,131,VALID,0,
2015-02-26, 09:11:04,VALID,918.349,VALID,0,VALID,79.1997,VALID,438.252,VALID,23.7968,VALID,131,VALID,0,
2015-02-26, 09:12:04,VALID,918.391,VALID,0,VALID,78.8033,VALID,443.41,VALID,24.0506,VALID,130,VALID,0,
2015-02-26, 09:13:04,VALID,918.374,VALID,0,VALID,78.3077,VALID,450.823,VALID,24.2654,VALID,65,VALID,0,
2015-02-26, 09:14:04,VALID,918.357,VALID,0,VALID,76.318,VALID,453.294,VALID,24.4429,VALID,127,VALID,0,
2015-02-26, 09:15:04,VALID,918.358,VALID,0,VALID,75.6853,VALID,447.385,VALID,24.6187,VALID,127,VALID,0,
2015-02-26, 09:16:04,VALID,918.398,VALID,0,VALID,75.8454,VALID,458.344,VALID,24.7535,VALID,97,VALID,0,
2015-02-26, 09:17:04,VALID,918.433,VALID,0,VALID,75.3651,VALID,456.732,VALID,24.8707,VALID,95,VALID,0,
2015-02-26, 09:18:04,VALID,918.386,VALID,0,VALID,74.6104,VALID,466.08,VALID,24.8883,VALID,165,VALID,0,
2015-02-26, 09:19:04,VALID,918.414,VALID,0,VALID,76.0055,VALID,466.509,VALID,25.0464,VALID,164,VALID,0,
2015-02-26, 09:20:04,VALID,918.387,VALID,0,VALID,74.74,VALID,481.551,VALID,25.3003,VALID,164,VALID,0,
2015-02-26, 09:21:04,VALID,918.404,VALID,0,VALID,73.4364,VALID,501.213,VALID,25.398,VALID,124,VALID,0,
2015-02-26, 09:22:04,VALID,918.415,VALID,0,VALID,72.5978,VALID,514.321,VALID,25.5347,VALID,125,VALID,0,
2015-02-26, 09:23:04,VALID,918.427,VALID,0,VALID,71.3704,VALID,531.297,VALID,25.73,VALID,124,VALID,0,
2015-02-26, 09:24:04,VALID,918.458,VALID,0,VALID,72.2395,VALID,535.272,VALID,25.8863,VALID,63,VALID,0,
2015-02-26, 09:25:04,VALID,918.444,VALID,0,VALID,69.335,VALID,537.958,VALID,25.8257,VALID,194,VALID,0.630859,
2015-02-26, 09:26:04,VALID,918.459,VALID,0,VALID,69.5332,VALID,535.487,VALID,25.6694,VALID,174,VALID,1.05117,
2015-02-26, 09:27:04,VALID,918.449,VALID,0,VALID,69.9372,VALID,517.651,VALID,25.6284,VALID,175,VALID,0.295312,
2015-02-26, 09:28:04,VALID,918.481,VALID,0,VALID,71.7516,VALID,530.115,VALID,25.728,VALID,173,VALID,0.149219,
2015-02-26, 09:29:04,VALID,918.45,VALID,0,VALID,70.6157,VALID,561.273,VALID,25.728,VALID,60,VALID,0.828125,
2015-02-26, 09:30:04,VALID,918.448,VALID,0,VALID,71.6144,VALID,569.331,VALID,25.6694,VALID,77,VALID,0.377734,
2015-02-26, 09:31:04,VALID,918.466,VALID,0,VALID,71.9346,VALID,528.825,VALID,25.6128,VALID,101,VALID,0,
2015-02-26, 09:32:04,VALID,918.454,VALID,0,VALID,72.5216,VALID,590.174,VALID,25.5523,VALID,112,VALID,0.196484,
2015-02-26, 09:33:04,VALID,918.463,VALID,0,VALID,70.852,VALID,586.951,VALID,25.2788,VALID,114,VALID,0.933594,
2015-02-26, 09:34:04,VALID,918.494,VALID,0,VALID,72.4529,VALID,576.959,VALID,25.2203,VALID,110,VALID,0,
2015-02-26, 09:35:04,VALID,918.48,VALID,0,VALID,74.1072,VALID,617.357,VALID,25.396,VALID,34,VALID,0,
2015-02-26, 09:36:04,VALID,918.538,VALID,0,VALID,73.3982,VALID,413.756,VALID,25.689,VALID,81,VALID,0,
2015-02-26, 09:37:04,VALID,918.587,VALID,0,VALID,68.7708,VALID,532.478,VALID,25.8452,VALID,125,VALID,0,
2015-02-26, 09:38:04,VALID,918.557,VALID,0,VALID,68.8623,VALID,382.491,VALID,25.7866,VALID,86,VALID,0.768359,
2015-02-26, 09:39:04,VALID,918.566,VALID,0,VALID,70.6996,VALID,363.259,VALID,25.689,VALID,79,VALID,0,
2015-02-26, 09:40:04,VALID,918.6,VALID,0,VALID,70.0439,VALID,353.267,VALID,25.689,VALID,62,VALID,0.503125,
2015-02-26, 09:41:04,VALID,918.569,VALID,0,VALID,70.9588,VALID,461.137,VALID,25.4546,VALID,73,VALID,0.710156,
2015-02-26, 09:42:04,VALID,918.599,VALID,0,VALID,72.1404,VALID,615.208,VALID,25.2593,VALID,68,VALID,0,
2015-02-26, 09:43:04,VALID,918.57,VALID,0,VALID,72.2776,VALID,622.729,VALID,25.2203,VALID,74,VALID,0,
2015-02-26, 09:44:04,VALID,918.529,VALID,0,VALID,73.1467,VALID,626.06,VALID,25.2788,VALID,80,VALID,0.000390625,
2015-02-26, 09:45:04,VALID,918.543,VALID,0,VALID,74.7857,VALID,529.04,VALID,25.396,VALID,167,VALID,0.530078,
2015-02-26, 09:46:04,VALID,918.533,VALID,0,VALID,74.0767,VALID,476.609,VALID,25.357,VALID,179,VALID,0,
2015-02-26, 09:47:04,VALID,918.596,VALID,0,VALID,73.5126,VALID,565.14,VALID,25.4351,VALID,180,VALID,0,
2015-02-26, 09:48:04,VALID,918.564,VALID,0,VALID,72.2166,VALID,423.318,VALID,25.5894,VALID,174,VALID,0,
2015-02-26, 09:49:04,VALID,918.578,VALID,0,VALID,69.7619,VALID,602.745,VALID,25.8257,VALID,170,VALID,0,
2015-02-26, 09:50:04,VALID,918.591,VALID,0,VALID,69.7238,VALID,506.478,VALID,26.0601,VALID,164,VALID,0,
2015-02-26, 09:51:04,VALID,918.565,VALID,0,VALID,69.8305,VALID,606.828,VALID,26.312,VALID,146,VALID,0,
2015-02-26, 09:52:04,VALID,918.546,VALID,0,VALID,71.6372,VALID,614.993,VALID,26.1968,VALID,234,VALID,0,
2015-02-26, 09:53:04,VALID,918.542,VALID,0,VALID,71.1265,VALID,630.68,VALID,26.0776,VALID,231,VALID,0.0078125,
2015-02-26, 09:54:04,VALID,918.53,VALID,0,VALID,69.4874,VALID,627.134,VALID,26.0581,VALID,232,VALID,0.0941406,
2015-02-26, 09:55:04,VALID,918.53,VALID,0,VALID,68.6717,VALID,608.009,VALID,26.0015,VALID,187,VALID,1.07773,
2015-02-26, 09:56:04,VALID,918.494,VALID,0,VALID,68.0466,VALID,627.994,VALID,25.9409,VALID,209,VALID,0.0417969,
2015-02-26, 09:57:04,VALID,918.463,VALID,0,VALID,70.7758,VALID,644.969,VALID,25.9214,VALID,154,VALID,0,
2015-02-26, 09:58:04,VALID,918.423,VALID,0,VALID,67.4825,VALID,657.755,VALID,26.0386,VALID,193,VALID,0.00195313,
2015-02-26, 09:59:04,VALID,918.409,VALID,0,VALID,68.1381,VALID,672.259,VALID,26.0972,VALID,174,VALID,0,
2015-02-26, 10:00:04,VALID,918.371,VALID,0,VALID,67.4901,VALID,685.367,VALID,26.1753,VALID,76,VALID,0.569141,
2015-02-26, 10:01:04,VALID,918.338,VALID,0,VALID,69.8762,VALID,697.508,VALID,26.2339,VALID,85,VALID,0.0625,
2015-02-26, 10:02:04,VALID,918.338,VALID,0,VALID,68.504,VALID,703.954,VALID,26.4312,VALID,55,VALID,0.466406,
2015-02-26, 10:03:04,VALID,918.342,VALID,0,VALID,70.2422,VALID,292.24,VALID,26.4097,VALID,23,VALID,1.30508,
2015-02-26, 10:04:04,VALID,918.347,VALID,0,VALID,70.9206,VALID,294.604,VALID,26.2534,VALID,18,VALID,0,
2015-02-26, 10:05:04,VALID,918.377,VALID,0,VALID,69.2435,VALID,345.208,VALID,26.1753,VALID,337,VALID,0.0902344,
2015-02-26, 10:06:04,VALID,918.368,VALID,0,VALID,65.5156,VALID,380.557,VALID,26.1753,VALID,333,VALID,0,
2015-02-26, 10:07:04,VALID,918.333,VALID,0,VALID,66.4076,VALID,480.799,VALID,25.9214,VALID,333,VALID,0,
2015-02-26, 10:08:04,VALID,918.383,VALID,0,VALID,67.3834,VALID,588.885,VALID,25.7066,VALID,333,VALID,0,
2015-02-26, 10:09:04,VALID,918.319,VALID,0,VALID,71.5381,VALID,351.01,VALID,25.5894,VALID,333,VALID,0,
2015-02-26, 10:10:04,VALID,918.334,VALID,0,VALID,73.8633,VALID,317.166,VALID,25.5093,VALID,333,VALID,0,
2015-02-26, 10:11:04,VALID,918.29,VALID,0,VALID,72.5368,VALID,370.35,VALID,25.5503,VALID,333,VALID,0.198437,
2015-02-26, 10:12:04,VALID,918.321,VALID,0,VALID,74.8772,VALID,346.283,VALID,25.2769,VALID,341,VALID,0,
2015-02-26, 10:13:04,VALID,918.314,VALID,0,VALID,74.8924,VALID,265.809,VALID,25.275,VALID,358,VALID,0.280469,
2015-02-26, 10:14:04,VALID,918.304,VALID,0,VALID,74.0539,VALID,223.478,VALID,25.3531,VALID,350,VALID,0,
2015-02-26, 10:15:04,VALID,918.261,VALID,0,VALID,74.4198,VALID,198.121,VALID,25.4917,VALID,4,VALID,1.03711,
2015-02-26, 10:16:04,VALID,918.271,VALID,0,VALID,69.6018,VALID,188.774,VALID,25.5698,VALID,17,VALID,0,
2015-02-26, 10:17:04,VALID,918.22,VALID,0,VALID,70.5166,VALID,189.419,VALID,25.5523,VALID,17,VALID,0,
2015-02-26, 10:18:04,VALID,918.2,VALID,0,VALID,69.0986,VALID,202.634,VALID,25.4156,VALID,58,VALID,0.5875,
2015-02-26, 10:19:04,VALID,918.153,VALID,0,VALID,71.1417,VALID,236.048,VALID,25.1812,VALID,83,VALID,0.692578,
2015-02-26, 10:20:04,VALID,918.156,VALID,0,VALID,72.5216,VALID,463.394,VALID,25.0055,VALID,138,VALID,0,
2015-02-26, 10:21:04,VALID,918.14,VALID,0,VALID,70.8292,VALID,430.624,VALID,25.0621,VALID,138,VALID,0,
2015-02-26, 10:22:04,VALID,918.111,VALID,0,VALID,70.265,VALID,706.963,VALID,25.2593,VALID,96,VALID,0.00585938,
2015-02-26, 10:23:04,VALID,918.102,VALID,0,VALID,69.1825,VALID,673.011,VALID,25.4156,VALID,96,VALID,0,
2015-02-26, 10:24:04,VALID,918.097,VALID,0,VALID,72.087,VALID,659.044,VALID,25.5523,VALID,101,VALID,0.03125,
2015-02-26, 10:25:04,VALID,918.117,VALID,0,VALID,71.5076,VALID,659.044,VALID,25.7066,VALID,47,VALID,0.0417969,
2015-02-26, 10:26:04,VALID,918.129,VALID,0,VALID,68.4278,VALID,230.998,VALID,25.9624,VALID,51,VALID,0,
2015-02-26, 10:27:04,VALID,918.147,VALID,0,VALID,68.6641,VALID,250.338,VALID,26.1362,VALID,49,VALID,0,
2015-02-26, 10:28:04,VALID,918.1,VALID,0,VALID,68.8318,VALID,655.069,VALID,26.2339,VALID,47,VALID,0,
2015-02-26, 10:29:04,VALID,918.1,VALID,0,VALID,69.091,VALID,593.612,VALID,26.3902,VALID,50,VALID,0,
2015-02-26, 10:30:04,VALID,918.102,VALID,0,VALID,66.095,VALID,670.433,VALID,26.605,VALID,53,VALID,0,
2015-02-26, 10:31:04,VALID,918.032,VALID,0,VALID,65.447,VALID,748.65,VALID,26.8415,VALID,50,VALID,0,
2015-02-26, 10:32:04,VALID,918.042,VALID,0,VALID,65.1116,VALID,650.341,VALID,27.0369,VALID,47,VALID,0.760547,
2015-02-26, 10:33:04,VALID,918.031,VALID,0,VALID,66.0874,VALID,678.706,VALID,27.1716,VALID,41,VALID,0.366797,
2015-02-26, 10:34:04,VALID,918.021,VALID,0,VALID,64.9591,VALID,449.534,VALID,27.1716,VALID,30,VALID,0.0613281,
2015-02-26, 10:35:04,VALID,918.024,VALID,0,VALID,65.9883,VALID,310.183,VALID,26.9958,VALID,38,VALID,0.101563,
2015-02-26, 10:36:04,VALID,918.029,VALID,0,VALID,67.3529,VALID,623.911,VALID,26.8395,VALID,27,VALID,0,
2015-02-26, 10:37:04,VALID,917.996,VALID,0,VALID,63.6708,VALID,726.732,VALID,26.9587,VALID,27,VALID,0,
2015-02-26, 10:38:04,VALID,918.007,VALID,0,VALID,65.4547,VALID,364.225,VALID,27.076,VALID,27,VALID,0,
2015-02-26, 10:39:04,VALID,917.988,VALID,0,VALID,64.273,VALID,367.986,VALID,27.2302,VALID,27,VALID,0,
2015-02-26, 10:40:04,VALID,917.988,VALID,0,VALID,65.6986,VALID,559.446,VALID,27.4256,VALID,27,VALID,0,
2015-02-26, 10:41:04,VALID,917.989,VALID,0,VALID,65.0582,VALID,409.243,VALID,27.5428,VALID,39,VALID,0,
2015-02-26, 10:42:04,VALID,917.948,VALID,0,VALID,62.1308,VALID,732.964,VALID,27.5624,VALID,45,VALID,0,
2015-02-26, 10:43:04,VALID,917.904,VALID,0,VALID,63.1981,VALID,624.018,VALID,27.4256,VALID,24,VALID,0,
2015-02-26, 10:44:04,VALID,917.896,VALID,0,VALID,63.1219,VALID,779.056,VALID,27.5449,VALID,16,VALID,0.61875,
2015-02-26, 10:45:04,VALID,917.879,VALID,0,VALID,63.5107,VALID,330.811,VALID,27.4842,VALID,2,VALID,0.0605469,
2015-02-26, 10:46:04,VALID,917.905,VALID,0,VALID,63.4573,VALID,292.24,VALID,27.4647,VALID,2,VALID,0,
2015-02-26, 10:47:04,VALID,917.913,VALID,0,VALID,63.7623,VALID,279.884,VALID,27.5017,VALID,300,VALID,0,
2015-02-26, 10:48:04,VALID,917.925,VALID,0,VALID,64.3721,VALID,755.956,VALID,27.3475,VALID,252,VALID,0.132813,
2015-02-26, 10:49:04,VALID,917.959,VALID,0,VALID,63.6555,VALID,474.138,VALID,26.9156,VALID,228,VALID,0.603125,
2015-02-26, 10:50:04,VALID,917.922,VALID,0,VALID,64.6237,VALID,792.593,VALID,26.8199,VALID,250,VALID,0.0410156,
2015-02-26, 10:51:04,VALID,917.909,VALID,0,VALID,64.5017,VALID,778.304,VALID,26.566,VALID,260,VALID,0.886328,
2015-02-26, 10:52:04,VALID,917.876,VALID,0,VALID,67.795,VALID,788.511,VALID,26.3336,VALID,247,VALID,0.0878906,
2015-02-26, 10:53:04,VALID,917.898,VALID,0,VALID,67.513,VALID,330.489,VALID,26.3316,VALID,258,VALID,0.0183594,
2015-02-26, 10:54:04,VALID,917.859,VALID,0,VALID,67.1013,VALID,310.29,VALID,26.4292,VALID,203,VALID,0,
2015-02-26, 10:55:04,VALID,917.87,VALID,0,VALID,66.2322,VALID,267.206,VALID,26.568,VALID,170,VALID,0,
2015-02-26, 10:56:04,VALID,917.891,VALID,0,VALID,64.7762,VALID,241.85,VALID,26.4468,VALID,77,VALID,0,
2015-02-26, 10:57:04,VALID,917.877,VALID,0,VALID,64.2425,VALID,239.057,VALID,26.4077,VALID,75,VALID,0,
2015-02-26, 10:58:04,VALID,917.908,VALID,0,VALID,65.508,VALID,248.511,VALID,26.3316,VALID,100,VALID,0.065625,
2015-02-26, 10:59:04,VALID,917.929,VALID,0,VALID,65.0735,VALID,268.925,VALID,26.2534,VALID,109,VALID,0,
2015-02-26, 11:00:04,VALID,917.892,VALID,0,VALID,63.93,VALID,297.505,VALID,26.0581,VALID,121,VALID,0,
2015-02-26, 11:01:04,VALID,917.907,VALID,0,VALID,65.6529,VALID,299.976,VALID,25.9389,VALID,143,VALID,0,
2015-02-26, 11:02:04,VALID,917.873,VALID,0,VALID,65.165,VALID,292.777,VALID,25.9389,VALID,104,VALID,0.0695312,
2015-02-26, 11:03:04,VALID,917.831,VALID,0,VALID,64.5703,VALID,290.199,VALID,25.8022,VALID,112,VALID,0,
2015-02-26, 11:04:04,VALID,917.817,VALID,0,VALID,64.7152,VALID,287.727,VALID,25.9038,VALID,108,VALID,0,
2015-02-26, 11:05:04,VALID,917.775,VALID,0,VALID,63.7089,VALID,300.513,VALID,25.98,VALID,105,VALID,0,
2015-02-26, 11:06:04,VALID,917.736,VALID,0,VALID,63.9605,VALID,338.762,VALID,26.0581,VALID,106,VALID,0,
2015-02-26, 11:07:04,VALID,917.723,VALID,0,VALID,64.9591,VALID,334.787,VALID,26.1362,VALID,105,VALID,0,
2015-02-26, 11:08:04,VALID,917.719,VALID,0,VALID,65.1421,VALID,616.282,VALID,26.2925,VALID,84,VALID,0,
2015-02-26, 11:09:04,VALID,917.72,VALID,0,VALID,65.6376,VALID,855.124,VALID,26.5444,VALID,100,VALID,0,
2015-02-26, 11:10:04,VALID,917.706,VALID,0,VALID,63.4268,VALID,901.968,VALID,26.8004,VALID,105,VALID,0,
2015-02-26, 11:11:04,VALID,917.674,VALID,0,VALID,61.7344,VALID,401.937,VALID,26.9567,VALID,61,VALID,0,
2015-02-26, 11:12:04,VALID,917.648,VALID,0,VALID,61.1627,VALID,568.686,VALID,27.2281,VALID,72,VALID,0,
2015-02-26, 11:13:04,VALID,917.623,VALID,0,VALID,60.7967,VALID,582.976,VALID,27.3649,VALID,99,VALID,0,
2015-02-26, 11:14:04,VALID,917.62,VALID,0,VALID,60.1335,VALID,310.075,VALID,27.367,VALID,61,VALID,0,
2015-02-26, 11:15:04,VALID,917.593,VALID,0,VALID,63.1066,VALID,320.604,VALID,27.2107,VALID,61,VALID,0,
2015-02-26, 11:16:04,VALID,917.585,VALID,0,VALID,63.6936,VALID,825.041,VALID,27.2477,VALID,62,VALID,0,
2015-02-26, 11:17:04,VALID,917.535,VALID,0,VALID,62.1995,VALID,423.748,VALID,27.2456,VALID,61,VALID,0,
2015-02-26, 11:18:04,VALID,917.521,VALID,0,VALID,62.4663,VALID,247.974,VALID,27.2281,VALID,61,VALID,0,
2015-02-26, 11:19:04,VALID,917.516,VALID,0,VALID,63.1524,VALID,224.874,VALID,27.3104,VALID,61,VALID,0,
2015-02-26, 11:20:04,VALID,917.49,VALID,0,VALID,62.0775,VALID,217.353,VALID,27.3258,VALID,61,VALID,1.0793,
2015-02-26, 11:21:04,VALID,917.487,VALID,0,VALID,63.3506,VALID,244.966,VALID,27.0523,VALID,10,VALID,0.696484,
2015-02-26, 11:22:04,VALID,917.454,VALID,0,VALID,64.7838,VALID,235.941,VALID,26.7027,VALID,15,VALID,0.928516,
2015-02-26, 11:23:04,VALID,917.435,VALID,0,VALID,66.6591,VALID,239.916,VALID,26.3706,VALID,17,VALID,0.137109,
2015-02-26, 11:24:04,VALID,917.442,VALID,0,VALID,68.9233,VALID,246.47,VALID,26.1928,VALID,8,VALID,0,
2015-02-26, 11:25:04,VALID,917.422,VALID,0,VALID,66.804,VALID,246.792,VALID,26.1948,VALID,359,VALID,0.0195313,
2015-02-26, 11:26:04,VALID,917.448,VALID,0,VALID,68.3592,VALID,242.387,VALID,26.1147,VALID,24,VALID,0,